K0VXP-1 Weather Reports


time (UTC)temp
F
wind
direction
speed
knots
gust
knots
rain 1hr
in
rain 24hr
in
rain mn
in
humidity
%
barometer
mb
20220124111515 16 0 0.0 0.0 0.00 0.00 0.00 80 1019.1
20220124110013 15 0 0.0 2.6 0.00 0.00 0.00 79 1019.3
20220124104532 15 75 0.9 3.5 0.00 0.00 0.00 79 1019.4
20220124103031 14 74 2.6 4.3 0.00 0.00 0.00 77 1019.5
20220124101517 15 0 0.0 2.6 0.00 0.00 0.00 78 1019.5
20220124100024 16 51 0.9 2.6 0.00 0.00 0.00 79 1019.8
20220124094519 15 51 0.9 3.5 0.00 0.00 0.00 78 1019.8
20220124093013 15 51 1.7 4.3 0.00 0.00 0.00 76 1019.9
20220124091536 16 0 0.0 2.6 0.00 0.00 0.00 76 1019.8
20220124090019 16 0 0.0 2.6 0.00 0.00 0.00 76 1020.1
20220124084521 17 84 1.7 2.6 0.00 0.00 0.00 75 1020.1
20220124083039 18 0 0.0 0.0 0.00 0.00 0.00 74 1020.1
20220124081537 18 0 0.0 0.0 0.00 0.00 0.00 75 1020.2
20220124080018 18 0 0.0 0.0 0.00 0.00 0.00 74 1020.4
20220124074528 18 0 0.0 0.0 0.00 0.00 0.00 74 1020.5
20220124073018 18 0 0.0 2.6 0.00 0.00 0.00 72 1020.6
20220124071545 19 92 1.7 3.5 0.00 0.00 0.00 71 1020.8
20220124070045 19 0 0.0 0.0 0.00 0.00 0.00 72 1021.1
20220124064535 19 0 0.0 2.6 0.00 0.00 0.00 71 1021.0
20220124063015 19 92 0.9 3.5 0.00 0.00 0.00 71 1021.1
20220124061511 19 93 1.7 3.5 0.00 0.00 0.00 70 1021.4
20220124060015 20 93 0.9 2.6 0.00 0.00 0.00 69 1021.3
20220124054558 21 0 0.0 0.0 0.00 0.00 0.00 68 1021.4
20220124053036 21 0 0.0 0.0 0.00 0.00 0.00 68 1021.6
20220124051510 21 0 0.0 2.6 0.00 0.00 0.00 70 1021.6
20220124050011 20 94 0.9 2.6 0.00 0.00 0.00 70 1021.6
20220124044510 20 94 1.7 5.2 0.00 0.00 0.00 70 1021.7
20220124043013 21 93 2.6 5.2 0.00 0.00 0.00 68 1021.7
20220124041555 21 94 1.7 3.5 0.00 0.00 0.00 67 1021.8
20220124040109 22 96 1.7 3.5 0.00 0.00 0.00 66 1021.8
20220124034515 23 0 0.0 0.0 0.00 0.00 0.00 66 1022.1
20220124033050 22 98 1.7 3.5 0.00 0.00 0.00 66 1022.3
20220124031511 22 99 1.7 2.6 0.00 0.00 0.00 66 1022.3
20220124030015 22 100 1.7 3.5 0.00 0.00 0.00 65 1022.4
20220124024520 24 0 0.0 0.0 0.00 0.00 0.00 63 1022.2
20220124023010 25 0 0.0 0.0 0.00 0.00 0.00 62 1022.5
20220124021513 27 0 0.0 0.0 0.00 0.00 0.00 60 1022.4
20220124020009 27 0 0.0 0.0 0.00 0.00 0.00 61 1022.2
20220124014510 27 0 0.0 0.0 0.00 0.00 0.00 61 1022.2
20220124013011 27 0 0.0 0.0 0.00 0.00 0.00 61 1022.1
20220124011537 27 0 0.0 0.0 0.00 0.00 0.00 61 1022.0
20220124010010 28 0 0.0 0.0 0.00 0.00 0.00 61 1021.9
20220124004512 28 0 0.0 0.0 0.00 0.00 0.00 60 1021.9
20220124003028 30 0 0.0 0.0 0.00 0.00 0.00 57 1022.0
20220124001510 32 0 0.0 1.7 0.00 0.00 0.00 52 1021.9
20220124000017 35 0 0.0 1.7 0.00 0.00 0.00 50 1022.0
20220123234529 35 0 0.0 0.0 0.00 0.00 0.00 51 1021.9
20220123233013 35 0 0.0 0.0 0.00 0.00 0.00 51 1021.8
20220123231518 35 0 0.0 1.7 0.00 0.00 0.00 50 1021.7
20220123230015 36 0 0.0 1.7 0.00 0.00 0.00 50 1021.9
20220123224518 36 0 0.0 0.0 0.00 0.00 0.00 49 1021.9
20220123223020 37 0 0.0 4.3 0.00 0.00 0.00 49 1022.1
20220123221525 35 0 0.0 3.5 0.00 0.00 0.00 50 1022.1
20220123220020 36 242 0.0 4.3 0.00 0.00 0.00 50 1022.3
20220123214515 35 0 0.0 0.0 0.00 0.00 0.00 51 1022.3
20220123213020 35 0 0.0 0.0 0.00 0.00 0.00 50 1022.5
20220123211514 33 0 0.0 0.0 0.00 0.00 0.00 52 1022.6
20220123210010 33 0 0.0 0.0 0.00 0.00 0.00 53 1022.8
20220123204510 33 0 0.0 0.0 0.00 0.00 0.00 51 1022.9
20220123203013 31 0 0.0 0.0 0.00 0.00 0.00 56 1023.1
20220123201509 30 0 0.0 0.0 0.00 0.00 0.00 56 1023.4
20220123200035 30 0 0.0 0.0 0.00 0.00 0.00 57 1023.9
20220123194516 31 0 0.0 0.0 0.00 0.00 0.00 57 1024.1
20220123193014 32 0 0.0 0.0 0.00 0.00 0.00 57 1024.3
20220123191550 30 0 0.0 0.0 0.00 0.00 0.00 59 1024.8
20220123190113 29 0 0.0 0.0 0.00 0.00 0.00 62 1025.0
20220123184525 27 0 0.0 0.0 0.00 0.01 0.00 62 1025.3
20220123183102 27 0 0.0 0.0 0.00 0.01 0.00 62 1025.7
20220123181512 26 0 0.0 0.0 0.00 0.01 0.00 64 1025.9
20220123180018 25 0 0.0 0.0 0.00 0.01 0.00 65 1025.9
20220123174509 24 0 0.0 0.0 0.00 0.01 0.00 67 1025.9
20220123173010 22 0 0.0 0.0 0.00 0.01 0.00 67 1026.3
20220123171512 21 0 0.0 0.0 0.00 0.01 0.00 68 1026.2
20220123170033 21 0 0.0 0.0 0.00 0.01 0.00 67 1026.3
20220123164509 22 0 0.0 0.0 0.00 0.01 0.00 69 1026.2
20220123163050 22 0 0.0 0.0 0.00 0.01 0.00 68 1026.5
20220123161517 22 0 0.0 0.0 0.00 0.01 0.00 70 1026.5
20220123160009 21 0 0.0 0.0 0.00 0.01 0.00 76 1026.6
20220123154518 18 0 0.0 0.0 0.00 0.01 0.00 79 1026.5
20220123153018 16 0 0.0 0.0 0.00 0.01 0.00 82 1026.4
20220123151530 15 0 0.0 0.0 0.00 0.01 0.00 85 1026.3
20220123150009 12 0 0.0 0.0 0.00 0.01 0.00 84 1026.3
20220123144514 12 0 0.0 0.0 0.00 0.01 0.00 85 1026.4
20220123143009 11 0 0.0 0.0 0.00 0.01 0.00 83 1026.6
20220123141509 11 0 0.0 0.0 0.00 0.01 0.00 83 1026.5
20220123140018 12 0 0.0 0.0 0.00 0.01 0.00 84 1026.5
20220123134536 12 0 0.0 0.0 0.00 0.01 0.00 84 1026.5
20220123133014 12 0 0.0 0.0 0.00 0.01 0.00 84 1026.7
20220123131511 12 0 0.0 0.0 0.00 0.01 0.00 85 1026.6
20220123130049 12 0 0.0 0.0 0.00 0.01 0.00 84 1026.6
20220123124509 12 0 0.0 0.0 0.00 0.01 0.00 83 1026.6
20220123123010 12 0 0.0 0.0 0.00 0.01 0.00 82 1026.7
20220123121517 14 0 0.0 0.0 0.00 0.01 0.00 82 1026.6
20220123120027 15 0 0.0 0.0 0.00 0.01 0.00 82 1026.7
20220123114509 15 0 0.0 0.0 0.00 0.01 0.00 82 1026.8
20220123113015 15 0 0.0 0.0 0.00 0.01 0.00 83 1026.7